Kezdőlap
METAR-TAF:

METAR-TAF

Repülőterek :

Davenport Municipal Airport

Davenport, Iowa, Amerikai Egyesült Államok

földrajzi szélesség: 41-36-50N, földrajzi hosszúság: 090-35-29W, magasság: 229 m

Jelenlegi meteorológiai megfigyelések

A jelentés 10 perccel ezelõtt készült, 18:52 UTC
Északi szél 10 kt
Hőmérséklet 32°C
Páratartalom 43%
Légköri nyomás 1010 hPa
Látótávolság: 16.1 km
Derült ég

METAR: KDVN 181852Z AUTO 01010KT 10SM CLR 32/18 A2982 RMK AO2 SLP087 T03220178

Idő: 14:02 (19:02 UTC)


TAF: hiányzik

Meteorológiai megfigyelések és előrejelzések több, mint 4000 repülőtéren (METAR és TAF jelentéseket).

A térképen piros és sárga pontok jelzik az elérhető meteorológiai állomásokat.

Mozgassa az egeret a pont fölött, hogy megjelenjen az állomás neve.

Azután kattintson az időjárási megfigyelések és előrejelzések megtekintéséhez.

A térkép megváltoztatása: kattintson a fekete keresztel jelölt zöld gombra ráközelítéshez, a vonallal jelölt zöld gombra távolításhoz, vagy a zöld nyilakra a szomszédos térképek eléréséhez.


METAR-TAF: